Phelps, WI (54554)

7:03 AM CDT on May 30, 2015 (GMT -0500)
Misery Bay Boat Launch | | Change Station
CLOSE
Current Station
Personal Weather Station
Location: Watersmeet, MI
Elevation: 1685 ft
Nearby Weather Stations
Active Advisory: Freeze Warning

Elev 1685 ft 46.16 °N, 89.12 °W | Updated 4 minutes ago

Overcast
Overcast
47.1 °F
Feels Like 47 °F
N
2.2
Wind Variable Wind from ENE

Today
High -- | Low -- °F
--% Chance of Precip.
Yesterday
High -- | Low -- °F
Precip. -- in
5:10 AM 8:37 PM
Waxing Gibbous, 90% visible
Pressure 30.11 in
Visibility 5.0 miles
Clouds Mostly Cloudy 800 ft
Overcast 1200 ft
Windchill 47 °F
Dew Point 47 °F
Humidity 100%
Rainfall 0.03 in
Snow Depth Not available.
UV 0 out of 12
Pollen 7.30 out of 12
Air Quality Not available.
Flu Activity Sporadic
METAR KLNL 301135Z AUTO 02008KT 5SM BR BKN008 OVC012 09/08 A3011 RMK AO2 T00910082

More Conditions Fewer Conditions

Pressure 30.11 in
Visibility 5.0 miles
Clouds Mostly Cloudy 800 ft
Overcast 1200 ft
Windchill 47 °F
Dew Point 47 °F
Humidity 100%
Rainfall 0.03 in
Snow Depth Not available.
UV 0 out of 12
Pollen 7.30 out of 12
Air Quality Not available.
Flu Activity Sporadic
METAR KLNL 301135Z AUTO 02008KT 5SM BR BKN008 OVC012 09/08 A3011 RMK AO2 T00910082

More Conditions Fewer Conditions

10-Day Weather Forecast

Almanac

Astronomy

May. 30, 2015 Rise Set
Actual Time
Civil Twilight
Nautical Twilight
Astronomical Twilight
Moon
Length of Visible Light
Length of Day
Tomorrow will be .
, % of the Moon is Illuminated

Today's Extremes

State Highs State Lows

Community

WunderPhotos

Upload Photos

1,825,485 photos uploaded!

WunderBlogs® & News

Nearby

Air Quality

  Air Quality AQ Index Pollutant
Not available.

Snow Depth

Station Depth Elevation

Earthquake Activity

City Distance Mag. Time & Date
Minimum magnitude displayed is 2.5.

Coastal Water Temperatures

Place Temperature

Stations

Nearby Weather Stations

Station Location Temp. Windchill Dew Point Humidity Wind Precip. Elev Updated Type
                   
Freeze Warning
Statement as of 4:10 AM CDT on May 30, 2015

... Freeze warning in effect from 3 am to 8 am CDT Sunday...

The National Weather Service in Green Bay has issued a freeze
warning... which is in effect from 3 am to 8 am CDT Sunday.

* Temperature... overnight low temperatures of 27 to 34 degrees are
expected.

* Impacts... temperatures this cold can kill cold-sensitive
vegetation.

Precautionary/preparedness actions...

A freeze warning means sub-freezing temperatures are expected.
These conditions will kill cold-sensitive vegetation. Where
possible... bring sensitive plants into a garage or shed overnight.
If that is not possible... cover them to protect them from the
cold.